Location: Unspecified
(41.4057°N, 2.1753°E)
Time: 09:53:26
(UTC+02:00)

ISS - Visible Passes

Search period start: 29 July 2016 00:00
Search period end: 08 August 2016 00:00
Orbit: 401 x 404 km, 51.6° (Epoch: 29 July)

Date Brightness Start Highest point End Pass type
(mag) Time Alt. Az. Time Alt. Az. Time Alt. Az.
29 Jul -0.2 00:22:17 10° NW 00:24:26 16° NNW 00:26:35 10° NNE visible
29 Jul 0.0 01:59:53 10° NNW 02:00:32 12° NNW 02:00:32 12° NNW visible
29 Jul -0.9 05:17:51 11° SSE 05:17:51 11° SSE 05:18:04 10° SSE visible
29 Jul -3.4 21:51:13 10° SW 21:54:28 86° SSE 21:57:44 10° NE visible
29 Jul -0.6 23:28:44 10° WNW 23:31:15 20° NNW 23:33:46 10° NNE visible
30 Jul -0.1 01:06:51 10° NNW 01:08:37 14° N 01:09:03 13° NNE visible
30 Jul -1.1 22:35:15 10° W 22:38:07 28° NNW 22:41:00 10° NE visible
31 Jul -0.1 00:13:33 10° NW 00:15:21 14° N 00:17:10 10° NNE visible
31 Jul -2.0 21:41:56 10° WSW 21:45:03 43° NNW 21:48:11 10° NE visible
31 Jul -0.3 23:20:04 10° NW 23:22:07 15° N 23:24:10 10° NNE visible
01 Aug -0.2 00:57:29 10° NNW 00:58:56 15° N 00:58:56 15° N visible
01 Aug -0.5 22:26:30 10° WNW 22:28:54 19° NNW 22:31:19 10° NNE visible
02 Aug -0.3 00:04:29 10° NNW 00:06:17 14° N 00:07:37 12° NNE visible
02 Aug -1.0 21:32:58 10° W 21:35:45 25° NNW 21:38:32 10° NE visible
02 Aug -0.3 23:11:16 10° NW 23:13:01 14° N 23:14:48 10° NNE visible
03 Aug -0.2 00:47:52 10° NNW 00:48:56 16° NNW 00:48:56 16° NNW visible
03 Aug -0.4 22:17:49 10° NW 22:19:46 15° N 22:21:45 10° NNE visible
03 Aug -0.7 23:55:02 10° NNW 23:57:11 16° NNE 23:57:40 16° NNE visible
04 Aug -0.5 23:02:05 10° NNW 23:03:57 14° N 23:05:48 10° NE visible
05 Aug -0.2 00:38:11 10° NW 00:39:01 16° NNW 00:39:01 16° NNW visible
05 Aug -0.5 22:08:56 10° NNW 22:10:41 14° N 22:12:26 10° NNE visible
05 Aug -1.1 23:45:23 10° NW 23:47:47 22° NNE 23:47:47 22° NNE visible
06 Aug -0.8 22:52:34 10° NNW 22:54:49 17° NNE 22:56:34 12° NE visible
07 Aug -0.2 00:28:32 10° NW 00:29:09 15° NW 00:29:09 15° NW visible
07 Aug -0.6 21:59:39 10° NNW 22:01:35 15° N 22:03:30 10° NE visible
07 Aug -1.6 23:35:41 10° NW 23:37:58 30° N 23:37:58 30° N visible
